SL-8 R/B

Satellite information

Favourite Embed

Satellite Type and Status

ROCKET BODYIN ORBIT

Key statistics

Satellite SL-8 R/B at a glance.

Uptime

12072

Days in orbit

Revolutions

≈ 14.3

Per day

Orbit

LEO

Low Earth Orbit

Inclination

74.0

Latest

Satellite identification and parameters

Extended collection of information and parameters for SL-8 R/B.

Object identification

Identified? True

Debris? False

Object name: SL-8 R/B

International designator: 1992-053B

Object number (NORAD): 22081

Object ID (CCSDS): 22081

Country: COMMONWEALTH OF INDEPENDENT STATES (CIS)

Current information (Y/N): Y

RCS size: LARGE

Orbital parameters

Period: 100.371 minutes

Inclination: 74.0461 deg

SMA: 7154.269 km

Apoapsis: 802.091 km

Periapsis: 750.177 km

RAAN: 359.2691 deg

Eccentricy: 0.00362817

Argument of periapsis: 313.1357 deg

Mean anomaly: 46.6763 deg

Mean motion: 14.34679317 rev/day

Mean motion (dot): 0.00000362 rev/day2

B* drag term: 0.00013634537 1/REarth

Two-line elements (TLE)

Creation date: Aug. 31, 2025, 2:26 a.m.

Reference frame: TEME

Reference center: EARTH

Epoch: Aug. 30, 2025, 8:36 p.m. UTC

TLE line 0: 0 SL-8 R/B

TLE line 1: 1 22081U 92053B 25242.85839266 .00000362 00000-0 13635-3 0 9996

TLE line 2: 2 22081 74.0461 359.2691 0036282 313.1357 46.6763 14.34679317727829

Live tracking on map

Real-time ground track for satellite SL-8 R/B.

In-orbit conjunctions

A list of the most updated potential collisions computed for object SL-8 R/B.

Target Orbit TCA Probability of collision Miss distance Type
NOAA 16 DEB SSO 2025-04-30 18:05:43 0.0001095252 820.0 (m) DEBRIS
METEOR 2-8 DEB LEO 2025-02-01 15:47:15 0.0001972079 181.0 (m) DEBRIS
DELTA 1 DEB SSO 2025-01-08 01:10:21 0.0001034328 907.0 (m) DEBRIS
CZ-6A DEB LEO 2024-12-15 23:52:27 0.0002594551 919.0 (m) DEBRIS
FENGYUN 1C DEB SSO 2024-10-10 09:25:23 0.0001117558 747.0 (m) DEBRIS

Associated space launch

Military communications satellite

SL-8 R/B was lifted into orbit during the mission ‘Kosmos-3M | Strela-2M 50’, on board a Kosmos-3M space rocket.

The launch took place on Aug. 12, 1992, 5:44 a.m. from 132/1 (132L).

For more information about the launch, click the button.

Launch to space Kosmos-3M | Strela-2M 50
Kosmos-3M | Strela-2M 50

Agency: N/A

Status: Launch Successful

Launch date: Aug. 12, 1992, 5:44 a.m. UTC

Rocket: Kosmos-3M

Launch pad: 132/1 (132L)

Location: Plesetsk Cosmodrome, Russian Federation

...

Latest news about this satellite

There are no fresh news available about this satellite. Check back as we update our databases every day.


Newsletter sign-up

Weekly statistics, charts and insights to help you stay on top of the space industry.